Location: Newark
(54.6833°N, 25.2833°E)
Time: 02:52:44
(UTC+00:00)

A-11 Canister half - Pass Details

Date: 30 January 2021
Orbit: 1525 x 1684 km, 47.3° (Epoch: 05 March)

Event Time Altitude Azimuth Distance (km) Brightness Sun altitude
Rises 18:33:42 0° 283° (WNW) 4,748 12.7 -31.6°
Reaches altitude 10° 18:38:11 10° 265° (W) 3,788 11.8 -32.2°
Maximum altitude 18:43:38 17° 230° (SW) 3,303 11.0 -32.9°
Drops below altitude 10° 18:49:10 10° 195° (SSW) 3,853 11.0 -33.7°
Enters shadow 18:52:13 - 182° (S) 4,483 11.3 -34.1°
